HVE2411 KGSO-SARI

Flight info

Callsign HVE2411
Flight time N/A
Altitude 33000
Route HOPRZ1 TBARE DCT YERBA/N0487F340 Q129 GARIC AR3 CARPX Y307 CASPR AR3 NUCAR/N0488F330 Y374 WEDER/N0487F350 Y374 RUMFO Y298 KNSLY A315 JOSES UA315 PJG UL339 PBL/N0483F360 UQ235 EDPAL UL793 LOGON/N0483F350 UL793 PUBIT/N0482F360 UL793 TFE/N0478F370 UL216 OGLAP
Aircraft MD11/H-SDE1E2E3FGHIJ2J3J4J5M1RWXY/LB1D1

Departure

Time 2026-05-06 16:22
Airport Piedmont Triad International Airport (KGSO)

Arrival

Time N/A
Airport Cataratas Del Iguazú International Airport (SARI)
Time Latitude Longitude Altitude Speed Heading
2026-05-06 16:10 36.11521 -79.92019 952 ft 0 kts 318°
2026-05-06 16:12 36.11523 -79.92022 952 ft 3 kts 315°
2026-05-06 16:12 36.11534 -79.92084 951 ft 12 kts 261°
2026-05-06 16:13 36.11467 -79.92111 949 ft 12 kts 141°
2026-05-06 16:13 36.11417 -79.92030 954 ft 14 kts 104°
2026-05-06 16:13 36.11432 -79.91931 952 ft 11 kts 72°
2026-05-06 16:13 36.11416 -79.91880 952 ft 4 kts 157°
2026-05-06 16:14 36.11379 -79.91895 955 ft 8 kts 210°
2026-05-06 16:14 36.11321 -79.91960 956 ft 14 kts 226°
2026-05-06 16:14 36.11238 -79.92066 955 ft 19 kts 226°
2026-05-06 16:14 36.11137 -79.92195 955 ft 23 kts 225°
2026-05-06 16:15 36.11019 -79.92344 953 ft 26 kts 226°
2026-05-06 16:15 36.10903 -79.92493 952 ft 21 kts 226°
2026-05-06 16:15 36.10813 -79.92608 949 ft 19 kts 226°
2026-05-06 16:15 36.10741 -79.92734 947 ft 18 kts 264°
2026-05-06 16:16 36.10808 -79.92864 947 ft 20 kts 315°
2026-05-06 16:16 36.10919 -79.92995 939 ft 25 kts 315°
2026-05-06 16:16 36.11055 -79.93157 932 ft 30 kts 316°
2026-05-06 16:16 36.11215 -79.93346 920 ft 29 kts 316°
2026-05-06 16:17 36.11342 -79.93497 910 ft 24 kts 316°
2026-05-06 16:17 36.11440 -79.93612 907 ft 18 kts 320°
2026-05-06 16:17 36.11531 -79.93649 905 ft 0 kts 354°
2026-05-06 16:20 36.11532 -79.93649 905 ft 1 kts 354°
2026-05-06 16:20 36.11552 -79.93654 908 ft 5 kts 345°
2026-05-06 16:20 36.11585 -79.93682 905 ft 7 kts 314°
2026-05-06 16:20 36.11604 -79.93739 906 ft 7 kts 273°
2026-05-06 16:21 36.11583 -79.93796 911 ft 8 kts 232°
2026-05-06 16:21 36.11516 -79.93886 910 ft 30 kts 226°
2026-05-06 16:21 36.11256 -79.94212 915 ft 76 kts 225°
2026-05-06 16:21 36.10732 -79.94872 935 ft 140 kts 225°
2026-05-06 16:22 36.09960 -79.95856 1089 ft 173 kts 226°
2026-05-06 16:22 36.09131 -79.96965 1782 ft 173 kts 226°
2026-05-06 16:22 36.08336 -79.98002 2782 ft 158 kts 229°
2026-05-06 16:22 36.07625 -79.98955 3636 ft 148 kts 230°
2026-05-06 16:23 36.06844 -79.99901 4064 ft 164 kts 226°
2026-05-06 16:23 36.05929 -80.00905 4311 ft 194 kts 224°
2026-05-06 16:23 36.04808 -80.02002 4478 ft 220 kts 211°
2026-05-06 16:23 36.03221 -80.02387 4615 ft 252 kts 184°
2026-05-06 16:24 36.01512 -80.01714 4953 ft 273 kts 154°
2026-05-06 16:24 36.00123 -80.00028 5317 ft 291 kts 127°
2026-05-06 16:24 35.99432 -79.97684 5633 ft 302 kts 98°
2026-05-06 16:24 35.99615 -79.95099 5957 ft 306 kts 70°
2026-05-06 16:25 36.00658 -79.92827 6281 ft 304 kts 43°
2026-05-06 16:25 36.02203 -79.91062 6602 ft 304 kts 34°
2026-05-06 16:25 36.03857 -79.89422 6903 ft 304 kts 33°
2026-05-06 16:25 36.05505 -79.87812 7196 ft 305 kts 32°
2026-05-06 16:26 36.07171 -79.86149 7473 ft 310 kts 34°
2026-05-06 16:26 36.08857 -79.84491 7653 ft 318 kts 33°
2026-05-06 16:26 36.10610 -79.82809 7964 ft 318 kts 33°
2026-05-06 16:26 36.12331 -79.81109 8194 ft 321 kts 33°
2026-05-06 16:27 36.14083 -79.79411 8410 ft 322 kts 32°
2026-05-06 16:27 36.15807 -79.77655 8747 ft 322 kts 37°
2026-05-06 16:27 36.17420 -79.75704 9017 ft 326 kts 43°
2026-05-06 16:27 36.18886 -79.73599 9269 ft 329 kts 47°
2026-05-06 16:28 36.20293 -79.71309 9537 ft 332 kts 51°
2026-05-06 16:28 36.21616 -79.68969 9707 ft 342 kts 52°
2026-05-06 16:28 36.22934 -79.66505 9891 ft 351 kts 54°
2026-05-06 16:28 36.24255 -79.63917 10118 ft 361 kts 57°
2026-05-06 16:29 36.25407 -79.61059 10277 ft 384 kts 69°
2026-05-06 16:29 36.26023 -79.57764 10463 ft 404 kts 88°
2026-05-06 16:29 36.25798 -79.54310 11186 ft 402 kts 105°
2026-05-06 16:29 36.25020 -79.50989 11917 ft 400 kts 112°
2026-05-06 16:30 36.24036 -79.47788 12622 ft 410 kts 116°
2026-05-06 16:30 36.23675 -79.46681 12952 ft 407 kts 113°
2026-05-06 16:30 36.22017 -79.41283 14084 ft 410 kts 112°
2026-05-06 16:30 36.21050 -79.38044 14560 ft 413 kts 113°
2026-05-06 16:31 36.20032 -79.34699 15154 ft 416 kts 112°
2026-05-06 16:31 36.19049 -79.31339 15697 ft 419 kts 112°
2026-05-06 16:31 36.18068 -79.27930 16226 ft 423 kts 112°
2026-05-06 16:31 36.17089 -79.24507 16764 ft 426 kts 111°
2026-05-06 16:32 36.16115 -79.21090 17280 ft 430 kts 112°
2026-05-06 16:32 36.15115 -79.17601 17826 ft 434 kts 112°
2026-05-06 16:32 36.14082 -79.14115 18328 ft 434 kts 112°
2026-05-06 16:32 36.13064 -79.10552 18758 ft 439 kts 111°
2026-05-06 16:33 36.12067 -79.07009 18968 ft 444 kts 111°
2026-05-06 16:33 36.11026 -79.03418 19356 ft 445 kts 111°
2026-05-06 16:33 36.09968 -78.99803 19637 ft 449 kts 112°
2026-05-06 16:34 36.06865 -78.93314 20242 ft 446 kts 132°
2026-05-06 16:34 36.04807 -78.90434 20570 ft 448 kts 136°
2026-05-06 16:34 36.02655 -78.87625 20975 ft 451 kts 137°
2026-05-06 16:34 36.00489 -78.84818 21387 ft 454 kts 137°
2026-05-06 16:35 35.98316 -78.81969 21793 ft 457 kts 136°
2026-05-06 16:35 35.96167 -78.79103 22250 ft 458 kts 136°
2026-05-06 16:35 35.94007 -78.76190 22703 ft 461 kts 136°
2026-05-06 16:35 35.92578 -78.74253 22940 ft 463 kts 136°
2026-05-06 16:36 35.89701 -78.70337 23415 ft 470 kts 135°
2026-05-06 16:36 35.87521 -78.67341 23827 ft 470 kts 135°
2026-05-06 16:36 35.85323 -78.64357 24081 ft 474 kts 135°
2026-05-06 16:36 35.83087 -78.61327 24445 ft 478 kts 136°
2026-05-06 16:37 35.80841 -78.58286 24827 ft 481 kts 136°
2026-05-06 16:37 35.78593 -78.55246 25193 ft 484 kts 136°
2026-05-06 16:37 35.76326 -78.52181 25584 ft 488 kts 136°
2026-05-06 16:37 35.74074 -78.49115 25935 ft 492 kts 136°
2026-05-06 16:38 35.71760 -78.46012 26258 ft 493 kts 136°
2026-05-06 16:38 35.69443 -78.42886 26630 ft 497 kts 136°
2026-05-06 16:38 35.67099 -78.39752 26975 ft 499 kts 135°
2026-05-06 16:38 35.64757 -78.36590 27375 ft 501 kts 135°
2026-05-06 16:39 35.62407 -78.33412 27732 ft 504 kts 135°
2026-05-06 16:39 35.60836 -78.31293 27983 ft 507 kts 135°
2026-05-06 16:39 35.58456 -78.28090 28351 ft 509 kts 135°
2026-05-06 16:39 35.56060 -78.24867 28699 ft 512 kts 135°
2026-05-06 16:40 35.52875 -78.20587 29151 ft 516 kts 136°
2026-05-06 16:40 35.50419 -78.17312 29495 ft 519 kts 136°
2026-05-06 16:40 35.47973 -78.14057 29870 ft 521 kts 136°
2026-05-06 16:40 35.46367 -78.11917 30164 ft 521 kts 136°
2026-05-06 16:41 35.43909 -78.08640 30543 ft 521 kts 136°
2026-05-06 16:41 35.41498 -78.05425 30900 ft 521 kts 136°
2026-05-06 16:41 35.39040 -78.02172 31251 ft 520 kts 137°
2026-05-06 16:41 35.36434 -77.99102 31543 ft 517 kts 144°
2026-05-06 16:42 35.32542 -77.95812 31974 ft 508 kts 157°
2026-05-06 16:42 35.29333 -77.94112 32329 ft 498 kts 168°
2026-05-06 16:42 35.27130 -77.93399 32557 ft 489 kts 172°
2026-05-06 16:42 35.23818 -77.92871 32928 ft 475 kts 182°
2026-05-06 16:43 35.20583 -77.92804 33030 ft 459 kts 189°
2026-05-06 16:43 35.14213 -77.93264 33026 ft 461 kts 189°
2026-05-06 16:44 35.07730 -77.93691 33050 ft 480 kts 187°
2026-05-06 16:44 35.00989 -77.93990 33072 ft 489 kts 187°
2026-05-06 16:45 34.93083 -77.94341 33050 ft 483 kts 188°
2026-05-06 16:45 34.87439 -77.94567 33041 ft 493 kts 188°
2026-05-06 16:46 34.80672 -77.94806 33059 ft 492 kts 187°
2026-05-06 16:46 34.73916 -77.95094 33053 ft 490 kts 188°
2026-05-06 16:47 34.67126 -77.95300 33094 ft 494 kts 186°
2026-05-06 16:47 34.60286 -77.95590 33055 ft 487 kts 189°
2026-05-06 16:48 34.53521 -77.95804 33070 ft 492 kts 187°
2026-05-06 16:48 34.46724 -77.96038 33061 ft 491 kts 188°
2026-05-06 16:49 34.39940 -77.96271 33096 ft 496 kts 187°
2026-05-06 16:49 34.33060 -77.96454 33084 ft 493 kts 187°
2026-05-06 16:50 34.26191 -77.96709 33104 ft 491 kts 188°
2026-05-06 16:50 34.19340 -77.97025 33087 ft 497 kts 188°
2026-05-06 16:51 34.12480 -77.97148 33068 ft 495 kts 187°
2026-05-06 16:51 34.05674 -77.97465 33112 ft 493 kts 188°
2026-05-06 16:52 33.99438 -77.97186 33081 ft 507 kts 174°
2026-05-06 16:52 33.94219 -77.95482 33088 ft 513 kts 167°
2026-05-06 16:53 33.90107 -77.94011 33078 ft 514 kts 168°
2026-05-06 16:53 33.86352 -77.92762 33092 ft 512 kts 168°
2026-05-06 16:54 33.82039 -77.91418 33104 ft 514 kts 171°
2026-05-06 16:54 33.77166 -77.90037 33141 ft 513 kts 172°
2026-05-06 16:55 33.71189 -77.88437 33083 ft 506 kts 171°
2026-05-06 16:55 33.67208 -77.87310 33090 ft 502 kts 174°
2026-05-06 16:56 33.63052 -77.86277 33078 ft 503 kts 173°
2026-05-06 16:56 33.59200 -77.85288 33040 ft 509 kts 173°
2026-05-06 16:57 33.53668 -77.83820 33100 ft 515 kts 172°
2026-05-06 16:57 33.46880 -77.82015 33094 ft 513 kts 172°
2026-05-06 16:58 33.39915 -77.80143 33104 ft 514 kts 172°
2026-05-06 16:58 33.32943 -77.78262 33097 ft 515 kts 172°
2026-05-06 16:59 33.25982 -77.76401 33106 ft 516 kts 172°
2026-05-06 16:59 33.18962 -77.74539 33110 ft 517 kts 172°
2026-05-06 17:00 33.11952 -77.72679 33108 ft 515 kts 172°
2026-05-06 17:00 33.04951 -77.70823 33097 ft 517 kts 173°
2026-05-06 17:01 32.97938 -77.68936 33112 ft 521 kts 173°
2026-05-06 17:01 32.90876 -77.67070 33114 ft 521 kts 173°
2026-05-06 17:02 32.83818 -77.65217 33117 ft 520 kts 173°
2026-05-06 17:02 32.76773 -77.63371 33112 ft 521 kts 173°
2026-05-06 17:03 32.69704 -77.61512 33116 ft 520 kts 173°
2026-05-06 17:03 32.62634 -77.59647 33116 ft 520 kts 173°
2026-05-06 17:04 32.55573 -77.57792 33124 ft 520 kts 173°
2026-05-06 17:04 32.48592 -77.55971 33115 ft 521 kts 173°
2026-05-06 17:05 32.41507 -77.54119 33116 ft 522 kts 173°
2026-05-06 17:05 32.34416 -77.52267 33120 ft 522 kts 173°
2026-05-06 17:06 32.27351 -77.50429 33117 ft 522 kts 173°
2026-05-06 17:06 32.20214 -77.48574 33114 ft 524 kts 173°
2026-05-06 17:07 32.13141 -77.46735 33118 ft 525 kts 173°
2026-05-06 17:07 32.06008 -77.44875 33120 ft 525 kts 173°
2026-05-06 17:08 31.98874 -77.43030 33090 ft 525 kts 173°
2026-05-06 17:08 31.91713 -77.41185 33125 ft 528 kts 173°
2026-05-06 17:09 31.84580 -77.39336 33127 ft 529 kts 172°
2026-05-06 17:09 31.77401 -77.37476 33126 ft 528 kts 173°
2026-05-06 17:10 31.70221 -77.35635 33107 ft 528 kts 173°
2026-05-06 17:10 31.63026 -77.33788 33128 ft 530 kts 173°
2026-05-06 17:11 31.55866 -77.31944 33130 ft 530 kts 173°
2026-05-06 17:11 31.48683 -77.30113 33126 ft 530 kts 173°
2026-05-06 17:12 31.41472 -77.28282 33108 ft 531 kts 173°
2026-05-06 17:12 31.34237 -77.26434 33125 ft 533 kts 173°
2026-05-06 17:13 31.27030 -77.24590 33130 ft 533 kts 173°
2026-05-06 17:13 31.19784 -77.22742 33134 ft 533 kts 173°
2026-05-06 17:14 31.12547 -77.20899 33127 ft 533 kts 172°
2026-05-06 17:14 31.05341 -77.19077 33130 ft 534 kts 172°
2026-05-06 17:15 30.98086 -77.17239 33136 ft 534 kts 173°
2026-05-06 17:15 30.90819 -77.15394 33147 ft 534 kts 172°
2026-05-06 17:16 30.83564 -77.13561 33129 ft 536 kts 172°
2026-05-06 17:16 30.76319 -77.11739 33140 ft 536 kts 173°
2026-05-06 17:17 30.69038 -77.09902 33141 ft 536 kts 172°
2026-05-06 17:17 30.61741 -77.08064 33134 ft 536 kts 172°
2026-05-06 17:18 30.54445 -77.06235 33134 ft 537 kts 172°
2026-05-06 17:18 30.47119 -77.04404 33137 ft 539 kts 173°
2026-05-06 17:19 30.39848 -77.02592 33136 ft 538 kts 172°
2026-05-06 17:19 30.32528 -77.00755 33139 ft 538 kts 172°
2026-05-06 17:20 30.25205 -76.98927 33134 ft 539 kts 173°
2026-05-06 17:20 30.17871 -76.97107 33135 ft 539 kts 173°